Location: Trenton
(45.6167°N, 62.6167°W)
Time: 15:37:00
(UTC+00:00)

N. Korean satellite - Visible Passes

Search period start: 20 September 2021 00:00
Search period end: 30 September 2021 00:00
Orbit: 448 x 498 km, 97.3° (Epoch: 19 September)

Date Brightness Start Highest point End Pass type
(mag) Time Alt. Az. Time Alt. Az. Time Alt. Az.
20 Sep 8.6 09:00:55 10° NNE 09:04:06 32° E 09:07:19 10° SSE visible
21 Sep 9.7 08:33:59 10° NE 08:36:11 16° E 08:38:24 10° SE visible
23 Sep 7.9 09:10:43 10° NNE 09:14:06 43° E 09:17:31 10° S visible
24 Sep 9.4 08:43:30 10° NE 08:46:13 20° E 08:48:57 10° SE visible
26 Sep 7.3 09:20:31 10° NNE 09:24:02 59° E 09:27:35 10° S visible
27 Sep 9.0 08:53:05 10° NE 08:56:10 27° E 08:59:16 10° SSE visible
28 Sep 9.9 08:26:25 10° ENE 08:28:11 13° E 08:29:56 10° ESE visible
29 Sep 6.7 09:30:18 10° NNE 09:33:54 80° ESE 09:37:31 10° S visible
